Flag for Germany Weather past 2 weeks in Wiesbaden, Hesse, Germany

Now
48 °F

Passing clouds.


Feels Like: 47 °F
Forecast: 42 / 63 °F
Wind: 3 mph from Northwest

Location: Wiesbaden Airport


UV Index: 0 (Low)

Visibility: N/A


Pressure: 29.90 "Hg

Humidity: 71%

Dew point: 39 °F

Location of WiesbadenLocation

Historic Weather in Wiesbaden

°F

Wiesbaden temperature yesterday

Maximum temperature yesterday: 61 °F (at 4:58 PM)
Minimum temperature yesterday: 40 °F (at 5:58 AM)
Average temperature yesterday: 50 °F

Past Weeks' High & Low Weather Summary

 TemperatureHumidityPressure
High72 °F (Apr 4, 4:58 PM)100% (Apr 6, 3:58 AM)30.45 "Hg (Apr 6, 3:58 AM)
Low32 °F (Apr 16, 3:58 AM)31% (Apr 17, 5:58 PM)29.66 "Hg (Apr 3, 2:58 AM)
Average54 °F66%30.07 "Hg
* Reported Apr 3 12:58 AM — Apr 18 12:58 AM, Wiesbaden, Weather by CustomWeather, © 2014

Note: Actual official high and low records may vary slightly from our data, if they occured in-between our weather recording intervals... More about our weather records

Advertising

Historic Weather Conditions — Data for Previous 24 hours

 ConditionsComfort  
Time TempWeatherWind HumidityBarometerVisibility
12:58 AM
Apr 18
49 °FClear.2 mph64%29.92 "HgN/A
11:58 PM
Apr 17
48 °FPassing clouds.No wind62%29.94 "HgN/A
10:58 PM49 °FOvercast.No wind56%29.97 "HgN/A
9:58 PM50 °FClear.2 mph54%29.98 "HgN/A
8:58 PM54 °FPartly sunny.No wind38%29.99 "HgN/A
7:58 PM54 °FSunny.5 mph41%30.00 "HgN/A
6:58 PM59 °FSunny.6 mph34%30.03 "HgN/A
5:58 PM61 °FSunny.8 mph31%30.06 "HgN/A
4:58 PM61 °FSunny.2 mph34%30.08 "HgN/A
3:58 PM59 °FSunny.7 mph37%30.11 "HgN/A
2:58 PM57 °FSunny.5 mph41%30.15 "HgN/A
1:58 PM56 °FSunny.7 mph42%30.19 "HgN/A
12:58 PM55 °FSunny.3 mph44%30.22 "HgN/A
11:58 AM54 °FSunny.3 mph44%30.26 "HgN/A
10:58 AM50 °FSunny.3 mph50%30.28 "HgN/A
9:58 AM48 °FSunny.6 mph54%30.29 "HgN/A
8:58 AM46 °FSunny.9 mph56%30.31 "HgN/A
7:58 AM44 °FSunny.6 mph59%30.32 "HgN/A
6:58 AM41 °FClear.5 mph63%30.32 "HgN/A
5:58 AM40 °FClear.2 mph65%30.32 "HgN/A
4:58 AM41 °FClear.2 mph61%30.33 "HgN/A
3:58 AM41 °FClear.7 mph66%30.34 "HgN/A
2:58 AM42 °FClear.6 mph64%30.35 "HgN/A
Weather by CustomWeather, © 2014

See weather overview